[[{"header":{"parameterUnit":"m.s-1","parameterCategory":1,"la1":30.2991,"la2":30.254,"lo1":-89.0895,"lo2":-89.0444,"dy":0.0017,"dx":0.0017,"nx":28,"ny":28,"refTime":"2024-04-12T03:00:00:Z","depth":0,"parameterNumber":2,"parameterNumberName":"U-component_of_WINDS"},"data":[0,0,0,0,0,0,0,0,0,0,0,0,0,0,0,0,0,0,0,0,0,0,0,0,0,0,0,0,0,0,0,0,0,0,0,0,0,0,0,0,0,0,0,0,0,0,0,0,0,0,0,0,0,0,0,0,0,0,2.4268,2.4269,0,2.437,2.4371,2.4372,2.4416,2.4416,2.4415,2.4415,2.4522,2.4525,2.4528,0,0,0,0,0,0,0,0,0,0,0,0,0,2.4112,2.4115,2.4267,2.4269,2.427,2.437,2.4371,2.4373,2.4416,2.4416,2.4415,2.4415,2.4521,2.4525,2.4528,0,0,0,0,0,0,0,0,0,0,0,0,0,2.4194,2.4115,2.4267,2.4303,2.4308,2.437,2.4371,2.4373,2.4416,2.4416,2.4415,2.4415,2.452,2.4524,2.4529,2.4563,0,0,2.4543,2.4545,0,0,0,0,0,0,0,0,2.4189,2.4199,2.4297,2.4301,2.4306,2.438,2.4356,2.4437,2.4416,2.4375,2.4415,2.4415,2.4475,2.4483,2.4503,2.4568,2.4572,2.4543,2.4546,2.4548,2.4549,0,0,0,0,0,0,0,2.4183,2.4195,2.4308,2.4298,2.4304,2.4316,2.4327,2.4371,2.4425,2.4378,2.4382,2.4393,2.4478,2.4499,2.4506,2.4574,2.4543,2.4547,2.455,2.4552,2.4674,2.4674,0,0,0,0,0,0,2.4171,2.419,2.4305,2.4311,2.4245,2.4319,2.4331,2.4356,2.4425,2.4435,2.4393,2.4395,2.4491,2.4501,2.451,2.4556,2.4548,2.4552,2.4555,2.4673,2.4674,2.4675,0,0,0,0,0,0,2.4168,2.4181,2.4301,2.4252,2.4268,2.4322,2.435,2.4359,2.438,2.4436,2.4446,2.4405,2.4491,2.4504,2.455,2.456,2.4554,2.4558,2.4673,2.4674,2.4674,2.4646,0,0,0,0,0,0,2.4163,2.4179,2.4192,2.4252,2.427,2.4337,2.435,2.4361,2.4387,2.439,2.445,2.4459,2.4492,2.4543,2.4554,2.4566,2.4562,2.4672,2.4673,2.4674,2.4646,2.4646,2.4645,0,0,0,0,0,2.4157,2.418,2.4192,2.4206,2.4287,2.4338,2.4349,2.4385,2.4388,2.4402,2.4438,2.4458,2.4557,2.4547,2.456,2.4574,2.4672,2.4673,2.4674,2.4646,2.4646,2.4645,0,0,0,0,0,0,2.412,2.4188,2.4203,2.4245,2.4285,2.4345,2.4363,2.4383,2.4424,2.4425,2.4469,2.4482,2.4525,2.4554,2.4542,2.4611,2.4616,2.462,2.459,2.459,2.459,2.4582,2.4566,0,0,0,0,0,2.4117,2.4152,2.421,2.4242,2.4261,2.4309,2.4332,2.4357,2.4401,2.4418,2.4458,2.4501,2.4542,2.4568,2.4608,2.4651,2.4665,2.4667,2.4666,2.4666,2.4668,2.4695,2.4697,2.4679,2.4679,2.4679,0,0,2.411,2.4152,2.4171,2.4235,2.4269,2.4306,2.4323,2.436,2.4388,2.4424,2.447,2.4501,2.4552,2.4596,2.4618,2.4622,2.4677,2.4667,2.4666,2.467,2.4696,2.4698,2.4699,2.4679,2.4679,2.4679,0,0,2.4117,2.4151,2.4182,2.4217,2.4268,2.43,2.4307,2.4365,2.4387,2.4434,2.4462,2.4497,2.4566,2.4601,2.4628,2.4651,2.4671,2.4663,2.466,2.4685,2.4687,2.4688,2.4697,2.47,2.4666,2.4666,2.4666,0,2.4102,2.4157,2.4196,2.4232,2.426,2.4295,2.4328,2.4359,2.4421,2.4441,2.4444,2.4533,2.4569,2.4624,2.4629,2.465,2.4661,2.4656,2.4683,2.4685,2.4687,2.4696,2.4699,2.4664,2.4665,2.4665,2.4665,0,2.4138,2.4176,2.4195,2.4254,2.4284,2.4318,2.4363,2.439,2.4413,2.4444,2.4493,2.4538,2.4589,2.4604,2.4627,2.4663,2.4663,2.4675,2.468,2.4687,2.4696,2.47,2.4663,2.4663,2.4663,2.4664,0,0,2.4122,2.4204,2.421,2.4238,2.4299,2.4329,2.4366,2.4416,2.4438,2.4481,2.4514,2.4573,2.4584,2.4614,2.4642,2.4664,2.468,2.4673,2.4675,2.4673,2.4724,2.4715,2.4718,2.4694,2.4695,2.4695,2.472,0,2.4138,2.4204,2.4241,2.4292,2.4328,2.4363,2.4395,2.4437,2.4468,2.4505,2.454,2.4581,2.4592,2.4611,2.4635,2.4673,2.4691,2.4672,2.4726,2.4727,2.4712,2.4723,2.4714,2.4735,2.4724,2.4724,2.4725,0,2.4164,2.4206,2.4261,2.4319,2.4335,2.4363,2.4413,2.4447,2.4496,2.4517,2.4552,2.458,2.4622,2.4624,2.4683,2.4669,2.4694,2.4716,2.4718,2.4725,2.4726,2.473,2.4742,2.4745,2.4731,2.473,2.473,0,2.4148,2.4219,2.4261,2.4284,2.4352,2.4371,2.4401,2.4449,2.4477,2.4521,2.4541,2.4589,2.4615,2.4653,2.4693,2.4691,2.4749,2.4754,2.4769,2.4768,2.4779,2.4777,2.4795,2.4794,2.4794,2.4794,2.4794,0,2.4161,2.4194,2.4255,2.4281,2.4319,2.4362,2.4399,2.4431,2.4474,2.4508,2.4541,2.4573,2.4624,2.4662,2.4694,2.4739,2.4751,2.477,2.4778,2.4767,2.4765,2.4784,2.4783,2.4795,2.4795,2.4795,2.4794,0,2.415,2.4192,2.424,2.4302,2.4318,2.4343,2.4396,2.4424,2.4458,2.45,2.4513,2.4566,2.4613,2.4658,2.472,2.4742,2.4787,2.4798,2.477,2.4775,2.4787,2.4785,2.4817,2.4824,2.4818,2.4818,2.4818,0,2.4155,2.4181,2.4245,2.427,2.4299,2.4339,2.4368,2.4412,2.4441,2.45,2.452,2.457,2.4612,2.4686,2.4731,2.478,2.4792,2.48,2.4799,2.4788,2.4793,2.479,2.4794,2.4799,2.4798,2.4798,2.4798,0,2.4161,2.4181,2.4221,2.427,2.4304,2.4344,2.4385,2.4404,2.4456,2.4488,2.4536,2.4569,2.4633,2.4683,2.4737,2.4769,2.4793,2.4798,2.4804,2.4793,2.4776,2.4786,2.4769,2.4797,2.4797,2.4797,2.4797,2.4797,2.4159,2.4184,2.4233,2.4278,2.4314,2.4352,2.4381,2.4419,2.446,2.4515,2.4539,2.4589,2.4639,2.4714,2.4746,2.4786,2.4792,2.48,2.4802,2.4804,2.4802,2.477,2.4796,2.4796,2.4797,2.4797,2.4797,0,2.4167,2.42,2.4241,2.4298,2.4334,2.4353,2.44,2.4429,2.4471,2.4516,2.4557,2.4613,2.4662,2.4711,2.4763,2.4786,2.4798,2.4798,2.4796,2.4804,2.4794,2.4784,2.4787,2.4787,2.4787,2.4787,2.4787,2.4787,2.4175,2.4219,2.4245,2.4308,2.4342,2.439,2.4415,2.4452,2.4488,2.4549,2.4589,2.4621,2.4668,2.4724,2.477,2.4783,2.4801,2.4798,2.4814,2.4804,2.4804,2.4805,2.4795,2.4801,2.4801,2.4821,2.4821,2.4822]},{"header":{"parameterUnit":"m.s-1","parameterCategory":1,"la1":30.2991,"la2":30.254,"lo1":-89.0895,"lo2":-89.0444,"dy":0.0017,"dx":0.0017,"nx":28,"ny":28,"refTime":"2024-04-12T03:00:00:Z","depth":0,"parameterNumber":3,"parameterNumberName":"V-component_of_WINDS"},"data":[0,0,0,0,0,0,0,0,0,0,0,0,0,0,0,0,0,0,0,0,0,0,0,0,0,0,0,0,0,0,0,0,0,0,0,0,0,0,0,0,0,0,0,0,0,0,0,0,0,0,0,0,0,0,0,0,0,0,-3.1262,-3.1262,0,-3.1259,-3.1259,-3.1259,-3.1282,-3.1282,-3.1283,-3.1284,-3.1276,-3.1275,-3.1274,0,0,0,0,0,0,0,0,0,0,0,0,0,-3.1287,-3.1286,-3.1262,-3.1262,-3.1262,-3.1259,-3.1259,-3.1259,-3.1282,-3.1282,-3.1283,-3.1284,-3.1276,-3.1275,-3.1274,0,0,0,0,0,0,0,0,0,0,0,0,0,-3.1279,-3.1286,-3.1262,-3.1273,-3.1274,-3.1259,-3.1259,-3.1259,-3.1281,-3.1282,-3.1283,-3.1284,-3.1277,-3.1275,-3.1274,-3.1247,0,0,-3.127,-3.127,0,0,0,0,0,0,0,0,-3.1279,-3.1278,-3.1272,-3.1272,-3.1274,-3.1272,-3.1265,-3.1254,-3.1281,-3.1278,-3.1284,-3.1285,-3.1274,-3.1273,-3.127,-3.1246,-3.1246,-3.127,-3.127,-3.1269,-3.1269,0,0,0,0,0,0,0,-3.128,-3.1278,-3.1261,-3.1272,-3.1273,-3.1278,-3.1278,-3.1263,-3.127,-3.1279,-3.128,-3.128,-3.1274,-3.1271,-3.127,-3.1246,-3.127,-3.1269,-3.1269,-3.1268,-3.1202,-3.1201,0,0,0,0,0,0,-3.1279,-3.1278,-3.1261,-3.1261,-3.1279,-3.1276,-3.1276,-3.1271,-3.1271,-3.1272,-3.1279,-3.1281,-3.1272,-3.1271,-3.1269,-3.1239,-3.1269,-3.1268,-3.1267,-3.1203,-3.1202,-3.1201,0,0,0,0,0,0,-3.128,-3.1277,-3.1261,-3.127,-3.1268,-3.1275,-3.1269,-3.1271,-3.1267,-3.1271,-3.1272,-3.1274,-3.1273,-3.1271,-3.1253,-3.1239,-3.1267,-3.1266,-3.1205,-3.1203,-3.1202,-3.1176,0,0,0,0,0,0,-3.128,-3.1277,-3.1267,-3.127,-3.1268,-3.1245,-3.1268,-3.127,-3.1266,-3.1268,-3.1267,-3.1267,-3.1274,-3.1255,-3.1252,-3.1238,-3.1265,-3.1206,-3.1204,-3.1202,-3.1178,-3.1174,-3.117,0,0,0,0,0,-3.1281,-3.1259,-3.1267,-3.1264,-3.1255,-3.1244,-3.1243,-3.1252,-3.1264,-3.1254,-3.1257,-3.1267,-3.1241,-3.1253,-3.125,-3.1235,-3.1207,-3.1204,-3.1202,-3.118,-3.1175,-3.117,0,0,0,0,0,0,-3.1252,-3.1259,-3.1268,-3.1246,-3.1245,-3.1248,-3.1235,-3.1246,-3.1239,-3.1242,-3.1252,-3.1251,-3.1232,-3.1231,-3.1244,-3.1209,-3.1226,-3.1223,-3.121,-3.1205,-3.1201,-3.1201,-3.1264,0,0,0,0,0,-3.1244,-3.1235,-3.1241,-3.1221,-3.122,-3.1228,-3.1223,-3.1231,-3.1229,-3.1228,-3.1229,-3.1226,-3.1218,-3.1211,-3.1203,-3.1179,-3.1179,-3.1167,-3.1163,-3.116,-3.1157,-3.1145,-3.114,-3.1194,-3.1194,-3.1194,0,0,-3.1225,-3.1228,-3.1222,-3.1216,-3.1215,-3.1206,-3.1227,-3.1215,-3.1208,-3.1226,-3.1209,-3.121,-3.1208,-3.1187,-3.1178,-3.1186,-3.1143,-3.1157,-3.1154,-3.1153,-3.1142,-3.1137,-3.1133,-3.1192,-3.1192,-3.1193,0,0,-3.1187,-3.1188,-3.1173,-3.1173,-3.1173,-3.1179,-3.1175,-3.1178,-3.118,-3.1164,-3.1178,-3.1169,-3.1153,-3.1151,-3.1148,-3.1113,-3.1123,-3.111,-3.1088,-3.1077,-3.1073,-3.1069,-3.1058,-3.1053,-3.1107,-3.1107,-3.1107,0,-3.1164,-3.1151,-3.1163,-3.1151,-3.1149,-3.1167,-3.1151,-3.115,-3.1147,-3.1144,-3.1154,-3.1137,-3.1136,-3.1116,-3.1108,-3.1104,-3.1101,-3.111,-3.1073,-3.1069,-3.1066,-3.1055,-3.105,-3.1105,-3.1106,-3.1106,-3.1106,0,-3.1123,-3.1114,-3.1101,-3.11,-3.1096,-3.1082,-3.1092,-3.1087,-3.1095,-3.11,-3.1084,-3.1085,-3.1078,-3.1074,-3.108,-3.1055,-3.106,-3.1071,-3.1088,-3.1059,-3.1049,-3.1045,-3.1103,-3.1104,-3.1104,-3.1105,0,0,-3.1064,-3.1073,-3.1068,-3.1069,-3.1071,-3.1064,-3.1052,-3.1047,-3.1043,-3.104,-3.1031,-3.1018,-3.103,-3.1026,-3.1033,-3.1024,-3.0997,-3.1036,-3.1036,-3.1029,-3.097,-3.0962,-3.0957,-3.1004,-3.1003,-3.1003,-3.0971,0,-3.1028,-3.1008,-3.102,-3.0998,-3.0991,-3.1009,-3.0998,-3.0999,-3.1003,-3.0997,-3.1002,-3.0994,-3.1008,-3.1007,-3.0998,-3.1002,-3.0985,-3.1005,-3.0995,-3.0994,-3.0995,-3.0951,-3.0942,-3.0911,-3.0966,-3.0966,-3.0965,0,-3.0982,-3.098,-3.0959,-3.0965,-3.0963,-3.0953,-3.0951,-3.0945,-3.0946,-3.095,-3.0948,-3.0959,-3.0947,-3.0965,-3.0949,-3.0962,-3.0959,-3.096,-3.0959,-3.0958,-3.0978,-3.0949,-3.0902,-3.0897,-3.0959,-3.0959,-3.096,0,-3.0942,-3.0935,-3.0921,-3.0921,-3.0928,-3.0922,-3.0924,-3.0927,-3.0924,-3.0922,-3.092,-3.0916,-3.0914,-3.0911,-3.092,-3.0931,-3.0903,-3.0921,-3.0906,-3.0906,-3.0899,-3.0899,-3.085,-3.0897,-3.0897,-3.0897,-3.0897,0,-3.09,-3.0886,-3.0904,-3.0896,-3.0881,-3.0895,-3.088,-3.0885,-3.0887,-3.088,-3.0895,-3.0888,-3.09,-3.0894,-3.0901,-3.0888,-3.0887,-3.089,-3.0892,-3.0888,-3.0888,-3.0886,-3.0889,-3.0896,-3.0896,-3.0896,-3.0896,0,-3.0853,-3.0865,-3.0851,-3.0861,-3.0863,-3.0851,-3.0859,-3.0852,-3.0859,-3.0849,-3.0848,-3.0858,-3.0852,-3.0862,-3.0856,-3.0861,-3.0843,-3.0848,-3.0843,-3.0844,-3.0829,-3.0831,-3.0777,-3.0771,-3.0821,-3.0821,-3.082,0,-3.0825,-3.0816,-3.0825,-3.0822,-3.0824,-3.0819,-3.0817,-3.0831,-3.0828,-3.0831,-3.0823,-3.0819,-3.0817,-3.0806,-3.0813,-3.0809,-3.0814,-3.0796,-3.0813,-3.0811,-3.0815,-3.0815,-3.0815,-3.0792,-3.0791,-3.0791,-3.079,0,-3.0775,-3.0782,-3.078,-3.078,-3.0778,-3.0778,-3.0779,-3.0776,-3.0791,-3.0787,-3.0782,-3.078,-3.0776,-3.0772,-3.0771,-3.0773,-3.0784,-3.0785,-3.0782,-3.0778,-3.0776,-3.0778,-3.0833,-3.0786,-3.0786,-3.0787,-3.0787,-3.0787,-3.0737,-3.073,-3.0736,-3.0734,-3.0737,-3.0738,-3.0733,-3.074,-3.0737,-3.0736,-3.0744,-3.0738,-3.0741,-3.0741,-3.0742,-3.0737,-3.0745,-3.074,-3.0738,-3.0737,-3.0735,-3.0777,-3.0737,-3.0737,-3.0737,-3.0737,-3.0737,0,-3.0689,-3.0694,-3.0692,-3.0694,-3.0692,-3.0706,-3.0708,-3.0706,-3.0701,-3.0704,-3.0702,-3.0697,-3.0694,-3.0701,-3.0699,-3.0694,-3.0699,-3.0693,-3.0693,-3.0694,-3.0727,-3.0731,-3.0689,-3.0689,-3.0689,-3.0689,-3.0689,-3.0689,-3.0663,-3.0653,-3.0661,-3.0652,-3.0658,-3.0653,-3.0654,-3.0655,-3.0658,-3.0653,-3.0651,-3.0657,-3.0662,-3.0661,-3.0658,-3.0661,-3.0659,-3.0651,-3.0655,-3.0686,-3.0691,-3.0696,-3.0699,-3.0651,-3.0651,-3.0622,-3.0622,-3.0622]}]]